Погода в Дартмуте

Великобритания     50°21′10″N   3°35′25″W
темп.,
°C
ветер,
м/с
пор.,
м/с
влажн.,
%
обл.,
%
осадки,
мм/ч
давл.,
гПа
погр.,
м
2 августа, пн
пн201:00+14сз227812 0.0 101588
04:00+13зсз22795 0.0 1015124
07:00+13зсз228070 0.0 1015137
10:00+14юз117712 0.0 1015211
13:00+15юз5579100 0.1 1015345
16:00+17з7876100 0.3 1014251
19:00+17сз5673100 0.6 1014173
22:00+16сз467828 0.0 1015189
3 августа, вт
вт301:00+14сз33786 0.0 1014113
04:00+13зсз3376100 0.0 1013132
07:00+13ссз2275100 0.0 1014142
10:00+14в1172100 0.0 1014198
13:00+15ююз2273100 0.0 1013338
16:00+15юз337499 0.0 1012391
19:00+15юз337678 0.0 1012310
22:00+15з227796 0.0 1013137
4 августа, ср
ср401:00+15сз227870 0.0 1013124
04:00+14ссз348142 0.0 1012201
07:00+14ссз23825 0.0 1013144
10:00+15з11765 0.0 1014186
13:00+16юз547920 0.1 1014407
16:00+17зюз78836 0.2 1014341
19:00+16зюз7988100 0.3 1013371
22:00+16зюз6891100 0.1 1013339
5 августа, чт
чт501:00+16юз698993 0.1 1012399
04:00+16ююз7990100 0.0 1009638
07:00+15ююз91190100 0.6 1007794
10:00+15ю111594100 4.3 1004926
13:00+17юз111589100 5.4 1002484
16:00+17юз101488100 0.3 1001438
19:00+16юз9129332 0.4 1000450
22:00+16зюз9129328 0.0 1000472
6 августа, пт
пт601:00+16зюз9139293 0.1 1001566
04:00+16зюз11159170 0.1 1000615
07:00+16з10148856 0.2 1002668
10:00+16зюз1012874 0.1 1003564
13:00+16зюз11138410 0.2 1004700
16:00+16зюз10128311 0.1 1004641
19:00+16юз9128750 0.1 1003642
22:00+16юз9128799 0.1 1003523